• Join FlightAware (Why Join?)
  • Login
  • US Flag 
01:19PM EDT


 

Airport Tracker/Info


-or-


 

Live Flight TrackerFlight Track Log ✈ UPS1121 ✈ 09-May-2013 ✈ KALB - KBDL

Flight Track Log - Related Links

Times and Time Zones

All times are in EDT time to prevent confusion due to time zone crossing. See the UPS1121 flight status page for this flight to view local times or setup timezone preferences in your user account.

Time Position Orientation Groundspeed Altitude Reporting Facility
EDT Latitude Longitude Course Direction KTS MPH feet Rate Location/Type
08:34PM 42.7339 -73.8081 175° South 161 185 1,600  Level Boston Center
08:35PM 42.7069 -73.8047 175° South 179 206 2,900 2,940 Climbing Boston Center
08:36PM 42.6492 -73.7639 153° Southeast 260 299 6,100 3,000 Climbing Boston Center
08:37PM 42.5875 -73.6667 131° Southeast 294 338 9,700 1,920 Climbing Boston Center
08:38PM 42.5133 -73.5892 142° Southeast 310 357 10,400 600 Climbing Boston Center
08:39PM 42.4414 -73.4950 136° Southeast 352 405 11,000 420 Climbing Boston Center
08:39PM 42.4147 -73.4581 134° Southeast 362 417 11,000  Level Boston Center
08:40PM 42.3778 -73.3900 126° Southeast 365 420 11,000  Level Boston Center
08:40PM 42.3508 -73.3531 135° Southeast 363 418 11,000  Level Boston Center
08:41PM 42.3181 -73.2964 128° Southeast 365 420 11,000  Level Boston Center
08:41PM 42.2850 -73.2511 135° Southeast 360 414 11,000  Level Boston Center
08:42PM 42.2478 -73.1861 128° Southeast 360 414 11,000  Level Boston Center
08:42PM 42.2253 -73.1550 134° Southeast 362 417 11,000  Level Boston Center
08:43PM 42.1881 -73.0928 129° Southeast 360 414 11,000  Level Boston Center
08:43PM 42.1694 -73.0394 115° Southeast 348 400 11,000 -420 Level Boston Center
08:44PM 42.1617 -72.9667 98° East 311 358 10,600 -1,020 Descending Boston Center
08:44PM 42.1556 -72.9161 99° East 300 345 10,000 -1,500 Descending Boston Center
08:45PM 42.1414 -72.8097 100° East 291 335 8,500 -2,040 Descending Boston Center
08:46PM 42.1333 -72.7172 97° East 280 322 6,200 -2,520 Descending Boston Center
08:47PM 42.1211 -72.6164 99° East 269 310 3,700 -1,500 Descending Boston Center
08:48PM 42.1022 -72.5269 106° East 244 281 3,200 -540 Descending Boston Center
08:49PM 42.0522 -72.5408 192° South 205 236 2,700 -540 Descending Boston Center
08:50PM 42.0169 -72.5825 221° Southwest 168 193 2,200 -600 Descending Boston Center
08:51PM 41.9939 -72.6133 225° Southwest 127 146 1,500 -660 Descending Boston Center
08:52PM 41.9708 -72.6439 225° Southwest 120 138 900 -600 Descending Boston Center